Location: ?
(35.4064°N, 139.3593°E)
Time: 05:10:07
(UTC+00:00)

NOSS 3-1 (C) - Visible Passes

Search period start: 16 July 2024 00:00
Search period end: 26 July 2024 00:00
Orbit: 649 x 1556 km, 63.4° (Epoch: 14 July)

Date Brightness Start Highest point End Pass type
(mag) Time Alt. Az. Time Alt. Az. Time Alt. Az.
16 Jul 3.1 12:42:28 46° WSW 12:43:46 67° WNW 12:49:09 10° NNE visible
16 Jul 6.1 14:34:54 10° NW 14:35:55 10° NNW 14:36:57 10° NNW visible
17 Jul 2.7 11:56:11 34° S 11:58:06 62° ESE 12:03:19 10° NE visible
17 Jul 5.6 13:46:17 10° W 13:49:28 17° NW 13:53:00 10° N visible
18 Jul 3.5 11:08:36 10° S 11:12:37 30° ESE 11:17:05 10° NE visible
18 Jul 4.9 12:59:09 10° WSW 13:03:15 27° NW 13:07:56 10° NNE visible
18 Jul 6.7 18:41:57 10° N 18:46:13 16° NE 18:50:53 10° ENE visible
19 Jul 4.4 10:24:44 10° SE 10:27:19 15° ESE 10:30:02 10° ENE visible
19 Jul 3.8 12:12:43 10° SW 12:17:15 48° NW 12:22:30 10° NNE visible
19 Jul 6.9 17:58:26 10° NNE 17:59:37 10° NNE 18:00:48 10° NE visible
20 Jul 2.8 11:26:50 10° SSW 11:31:28 88° ESE 11:36:49 10° NNE visible
20 Jul 6.0 13:20:47 10° WNW 13:23:13 13° NW 13:25:51 10° N visible
20 Jul 6.4 18:59:57 10° N 19:06:18 28° NE 19:13:36 10° ESE visible
21 Jul 3.1 10:41:33 10° S 10:45:54 43° ESE 10:50:49 10° NE visible
21 Jul 5.5 12:33:11 10° W 12:36:54 21° NW 12:41:05 10° N visible
21 Jul 6.6 18:14:53 10° N 18:20:00 19° NE 18:25:42 10° E visible
22 Jul 4.5 11:46:26 10° WSW 11:50:47 36° NW 11:55:49 10° NNE visible
22 Jul 6.9 17:30:21 10° N 17:33:29 13° NE 17:36:50 10° ENE visible
23 Jul 3.3 11:00:16 10° SW 11:04:53 67° WNW 11:10:16 10° NNE visible
23 Jul 6.4 12:55:59 10° NW 12:57:02 10° NNW 12:58:05 10° NNW visible
23 Jul 6.0 18:33:08 10° NNW 18:39:56 34° NE 18:47:50 10° ESE visible
24 Jul 2.8 10:14:41 10° SSW 10:19:13 62° ESE 10:24:25 10° NE visible
24 Jul 6.0 12:07:23 10° W 12:10:35 17° NW 12:14:07 10° N visible
24 Jul 6.4 17:47:56 10° N 17:53:43 23° NE 18:00:17 10° E visible
25 Jul 5.2 11:20:16 10° WSW 11:24:21 27° NW 11:29:03 10° NNE visible
25 Jul 6.8 17:03:04 10° N 17:07:19 16° NE 17:11:59 10° ENE visible
25 Jul 4.9 18:51:53 10° NNW 18:59:32 62° NE 19:08:36 10° SE visible
